Location: Unspecified
(0.0000°N, 0.0000°E)
Time: 23:22:53
(UTC+00:00)

Vanguard 2 - Pass Details

Date: 06 October 2020
Orbit: 554 x 2937 km, 32.9° (Epoch: 28 October)

Event Time Altitude Azimuth Distance (km) Brightness Sun altitude
Rises 02:16:39 0° 273° (W) 6,525 - -52.5°
Reaches altitude 10° 02:23:35 10° 290° (WNW) 5,144 - -50.8°
Maximum altitude 02:31:56 18° 326° (NW) 3,927 - -48.8°
Drops below altitude 10° 02:38:32 10° 4° (N) 3,903 - -47.1°
Exits shadow 02:40:14 - 13° (NNE) 4,077 11.2 -46.7°
Sets 02:42:44 0° 24° (NNE) 4,448 11.6 -46.1°
